DELTA 1 DEB, 10207

Orbit data source: Space-Track

DELTA 1 DEB, 10207 is space debris in LEO originally from a launch on Thu, 14 Jul 1977 UTC launched from the Air Force Eastern Test Range (AFETR). Debris objects in space refer to the collection of defunct objects orbiting the Earth. Examples of debris include non-operational satellites, rocket bodies, and fragments generated from explosions, collisions, or faulty payload assembly.

Loading next visibility...
Identifier
10207, 1977-065AL
Orbit
LEO
Country
Flag of USUS
Related business
Manufacturer
Unknown
Mission
Spacecraft
Bus & Motor
Unknown
Mass
Unknown
Launch date (UTC)
1977-07-14 (49 years ago)
Launch vehicle
Unknown
Launch site
Air Force Eastern Test Range (AFETR)
Object type
Payload
Rocket body
Debris
Shape & HBR
Unknown shape, 0.1 m
Radar Cross Section
Medium (>0.1 m² and <1 m²)

Expand to show TLE details & history
Last TLE update: 11 hours ago

TLE from 11 hours ago
0 DELTA 1 DEB
1 10207U 77065AL  26132.99811209 -.00001350  00000-0 -26109-2 0  9999
2 10207  29.0886  36.1760 0679351 260.4391  91.8795 12.73833408249704
Epoch: 2026-05-12T23:57Z
TLE epoch observation values (Epoch: 2026-05-12T23:57:16.884Z)
Latitude
-0.00005°
Longitude
166.09112°
Altitude
1,417.573 km
Speed
7.13 km/s
True Right ascension
02h 24m 42s
True Declination
0° 00' 00"
Sunlit
Object was in daylight at epoch
Visualization orbit readout
Latitude
Unknown
Longitude
Unknown
Altitude
Unknown
Speed
Unknown
Apparent Right ascension
Unknown
Apparent Declination
Unknown
Sunlit
N/A
Visualization observer readout
Local Sidereal Time
19:11:28
Azimuth
Unknown
Elevation
Unknown
Doppler factor
Unknown
Orbital elements
Apogee altitude
1,896.441 km
Perigee altitude
843.691 km
Semi-major axis
7,748.203 km
Eccentricity
0.06794
Inclination
29.0886°
RAAN
36.176°
Arg. of periapsis
260.4391°
True anomaly
99.61493°
Mean anomaly
91.8795°
Eccentric anomaly
95.75229°
Mean motion
3.1823 °/min
Orbital period
113.13 mins
BSTAR
-0.0026109
Loading maneuver chart data...
Computing Atmospheric mass density...

Documentation

Showing up to 5 results
|